| time (UTC) | temp F | wind direction | speed MPH | gust MPH | rain 1hr in | rain 24hr in | rain mn in | humidity % | barometer mb |
| 20260905224245 | 62 | 162 | 3.0 | 8.0 | 0.01 | 0.01 | 0.01 | 96 | 1020.9 |
| 20260905223745 | 62 | 164 | 2.0 | 7.0 | 0.01 | 0.01 | 0.01 | 96 | 1020.9 |
| 20260905223245 | 62 | 140 | 1.0 | 5.0 | 0.01 | 0.01 | 0.01 | 96 | 1020.9 |
| 20260905222747 | 62 | 144 | 2.0 | 5.0 | 0.01 | 0.01 | 0.01 | 96 | 1020.9 |
| 20260905222245 | 62 | 145 | 2.0 | 6.0 | 0.01 | 0.01 | 0.01 | 96 | 1021.0 |
| 20260905221746 | 62 | 185 | 2.0 | 6.0 | 0.01 | 0.01 | 0.01 | 96 | 1021.0 |
| 20260905221246 | 62 | 160 | 3.0 | 10.0 | 0.00 | 0.00 | 0.00 | 96 | 1021.1 |
| 20260905220746 | 62 | 167 | 2.0 | 6.0 | 0.00 | 0.00 | 0.00 | 96 | 1021.1 |
| 20260905220245 | 62 | 142 | 4.0 | 10.0 | 0.00 | 0.00 | 0.00 | 96 | 1021.2 |
| 20260905215747 | 62 | 174 | 6.0 | 13.0 | 0.00 | 0.00 | 0.00 | 96 | 1021.2 |
| 20260905215246 | 62 | 180 | 5.0 | 9.0 | 0.00 | 0.00 | 0.00 | 96 | 1021.2 |
| 20260905214745 | 62 | 161 | 4.0 | 8.0 | 0.00 | 0.00 | 0.00 | 96 | 1021.2 |
| 20260905213745 | 62 | 168 | 4.0 | 7.0 | 0.00 | 0.00 | 0.00 | 95 | 1021.1 |
| 20260905213246 | 62 | 172 | 4.0 | 7.0 | 0.00 | 0.00 | 0.00 | 95 | 1021.3 |
| 20260905212246 | 62 | 174 | 4.0 | 8.0 | 0.00 | 0.00 | 0.00 | 95 | 1021.3 |
| 20260905211745 | 62 | 141 | 3.0 | 6.0 | 0.00 | 0.00 | 0.00 | 95 | 1021.4 |
| 20260905211246 | 62 | 144 | 2.0 | 5.0 | 0.00 | 0.00 | 0.00 | 95 | 1021.4 |
| 20260905210746 | 62 | 158 | 2.0 | 6.0 | 0.00 | 0.00 | 0.00 | 95 | 1021.5 |
| 20260905210246 | 62 | 161 | 2.0 | 6.0 | 0.00 | 0.00 | 0.00 | 95 | 1021.6 |
| 20260905205746 | 62 | 165 | 4.0 | 7.0 | 0.00 | 0.00 | 0.00 | 95 | 1021.6 |
| 20260905204246 | 62 | 179 | 5.0 | 7.0 | 0.00 | 0.00 | 0.00 | 95 | 1021.6 |
| 20260905203746 | 62 | 169 | 5.0 | 9.0 | 0.00 | 0.00 | 0.00 | 95 | 1021.5 |
| 20260905203247 | 62 | 179 | 5.0 | 8.0 | 0.00 | 0.00 | 0.00 | 94 | 1021.6 |
| 20260905202746 | 62 | 178 | 3.0 | 6.0 | 0.00 | 0.00 | 0.00 | 94 | 1021.6 |
| 20260905202247 | 62 | 159 | 2.0 | 3.0 | 0.00 | 0.00 | 0.00 | 94 | 1021.7 |
| 20260905201748 | 62 | 172 | 1.0 | 5.0 | 0.00 | 0.00 | 0.00 | 94 | 1021.7 |
| 20260905200246 | 62 | 180 | 2.0 | 6.0 | 0.00 | 0.00 | 0.00 | 92 | 1021.7 |
| 20260905195747 | 62 | 159 | 3.0 | 6.0 | 0.00 | 0.00 | 0.00 | 91 | 1021.6 |
| 20260905195247 | 63 | 200 | 1.0 | 6.0 | 0.00 | 0.00 | 0.00 | 90 | 1021.7 |
| 20260905194746 | 63 | 229 | 1.0 | 5.0 | 0.00 | 0.00 | 0.00 | 89 | 1021.7 |
| 20260905194247 | 63 | 336 | 1.0 | 7.0 | 0.00 | 0.00 | 0.00 | 88 | 1021.7 |
| 20260905193247 | 63 | 187 | 3.0 | 8.0 | 0.00 | 0.00 | 0.00 | 86 | 1021.6 |
| 20260905192747 | 63 | 180 | 2.0 | 6.0 | 0.00 | 0.00 | 0.00 | 86 | 1021.5 |
| 20260905192247 | 63 | 174 | 2.0 | 6.0 | 0.00 | 0.00 | 0.00 | 86 | 1021.6 |
| 20260905191246 | 63 | 184 | 3.0 | 6.0 | 0.00 | 0.00 | 0.00 | 86 | 1021.5 |
| 20260905190248 | 63 | 158 | 2.0 | 6.0 | 0.00 | 0.00 | 0.00 | 86 | 1021.6 |
| 20260905185746 | 63 | 171 | 3.0 | 6.0 | 0.00 | 0.00 | 0.00 | 86 | 1021.6 |
| 20260905185247 | 63 | 174 | 2.0 | 5.0 | 0.00 | 0.00 | 0.00 | 86 | 1021.7 |
| 20260905184747 | 63 | 168 | 5.0 | 8.0 | 0.00 | 0.00 | 0.00 | 86 | 1021.7 |
| 20260905184247 | 63 | 178 | 3.0 | 8.0 | 0.00 | 0.00 | 0.00 | 86 | 1021.6 |
| 20260905183247 | 63 | 185 | 5.0 | 7.0 | 0.00 | 0.00 | 0.00 | 86 | 1021.7 |
| 20260905182748 | 63 | 170 | 5.0 | 8.0 | 0.00 | 0.00 | 0.00 | 86 | 1021.6 |
| 20260905181748 | 63 | 152 | 5.0 | 9.0 | 0.00 | 0.00 | 0.00 | 86 | 1021.7 |
| 20260905181248 | 63 | 153 | 2.0 | 7.0 | 0.00 | 0.00 | 0.00 | 85 | 1021.7 |
| 20260905180747 | 63 | 176 | 5.0 | 10.0 | 0.00 | 0.00 | 0.00 | 85 | 1021.6 |
| 20260905180248 | 63 | 163 | 5.0 | 10.0 | 0.00 | 0.00 | 0.00 | 85 | 1021.7 |
| 20260905175748 | 63 | 132 | 5.0 | 8.0 | 0.00 | 0.00 | 0.00 | 84 | 1021.6 |
| 20260905175249 | 63 | 156 | 6.0 | 7.0 | 0.00 | 0.00 | 0.00 | 84 | 1021.7 |
| 20260905174747 | 63 | 170 | 5.0 | 10.0 | 0.00 | 0.00 | 0.00 | 83 | 1021.7 |
| 20260905174248 | 63 | 170 | 5.0 | 9.0 | 0.00 | 0.00 | 0.00 | 83 | 1021.8 |
| 20260905173248 | 63 | 149 | 3.0 | 8.0 | 0.00 | 0.00 | 0.00 | 83 | 1021.9 |
| 20260905172747 | 63 | 150 | 4.0 | 7.0 | 0.00 | 0.00 | 0.00 | 82 | 1021.9 |
| 20260905172248 | 63 | 136 | 4.0 | 6.0 | 0.00 | 0.00 | 0.00 | 82 | 1021.9 |
| 20260905171748 | 63 | 150 | 3.0 | 7.0 | 0.00 | 0.00 | 0.00 | 82 | 1021.9 |
| 20260905171248 | 63 | 149 | 5.0 | 7.0 | 0.00 | 0.00 | 0.00 | 82 | 1021.9 |
| 20260905170747 | 63 | 178 | 3.0 | 8.0 | 0.00 | 0.00 | 0.00 | 81 | 1022.0 |
| 20260905165748 | 63 | 182 | 6.0 | 12.0 | 0.00 | 0.00 | 0.00 | 80 | 1022.0 |
| 20260905164747 | 64 | 175 | 3.0 | 10.0 | 0.00 | 0.00 | 0.00 | 80 | 1022.1 |
| 20260905164248 | 64 | 168 | 3.0 | 7.0 | 0.00 | 0.00 | 0.00 | 80 | 1022.1 |
| 20260905163749 | 64 | 309 | 0.0 | 6.0 | 0.00 | 0.00 | 0.00 | 80 | 1022.3 |
| 20260905163248 | 63 | 167 | 7.0 | 10.0 | 0.00 | 0.00 | 0.00 | 80 | 1022.3 |
| 20260905162749 | 64 | 173 | 1.0 | 9.0 | 0.00 | 0.00 | 0.00 | 80 | 1022.4 |
| 20260905162249 | 64 | 176 | 7.0 | 10.0 | 0.00 | 0.00 | 0.00 | 79 | 1022.4 |
| 20260905161749 | 64 | 166 | 7.0 | 17.0 | 0.00 | 0.00 | 0.00 | 79 | 1022.5 |
| 20260905161249 | 64 | 202 | 3.0 | 9.0 | 0.00 | 0.00 | 0.00 | 78 | 1022.5 |
| 20260905160748 | 64 | 174 | 3.0 | 7.0 | 0.00 | 0.00 | 0.00 | 78 | 1022.6 |
| 20260905160249 | 64 | 169 | 3.0 | 8.0 | 0.00 | 0.00 | 0.00 | 78 | 1022.6 |
| 20260905155749 | 65 | 197 | 6.0 | 10.0 | 0.00 | 0.00 | 0.00 | 77 | 1022.6 |
| 20260905155248 | 65 | 185 | 4.0 | 10.0 | 0.00 | 0.00 | 0.00 | 77 | 1022.6 |
| 20260905154248 | 64 | 187 | 7.0 | 12.0 | 0.00 | 0.00 | 0.00 | 77 | 1022.7 |
| 20260905153749 | 64 | 157 | 7.0 | 13.0 | 0.00 | 0.00 | 0.00 | 76 | 1022.7 |
| 20260905153250 | 65 | 171 | 7.0 | 12.0 | 0.00 | 0.00 | 0.00 | 76 | 1022.8 |
| 20260905152749 | 65 | 157 | 9.0 | 14.0 | 0.00 | 0.00 | 0.00 | 75 | 1022.8 |
| 20260905152249 | 65 | 166 | 6.0 | 9.0 | 0.00 | 0.00 | 0.00 | 75 | 1022.7 |
| 20260905151248 | 65 | 168 | 5.0 | 12.0 | 0.00 | 0.00 | 0.00 | 75 | 1022.8 |
| 20260905150749 | 65 | 193 | 7.0 | 15.0 | 0.00 | 0.00 | 0.00 | 75 | 1022.7 |
| 20260905150250 | 66 | 206 | 2.0 | 9.0 | 0.00 | 0.00 | 0.00 | 74 | 1022.9 |
| 20260905145750 | 66 | 193 | 3.0 | 8.0 | 0.00 | 0.00 | 0.00 | 74 | 1023.0 |
| 20260905145249 | 65 | 282 | 2.0 | 6.0 | 0.00 | 0.00 | 0.00 | 73 | 1023.0 |
| 20260905144749 | 65 | 206 | 3.0 | 8.0 | 0.00 | 0.00 | 0.00 | 73 | 1023.0 |
| 20260905144251 | 65 | 339 | 1.0 | 5.0 | 0.00 | 0.00 | 0.00 | 74 | 1023.1 |
| 20260905143753 | 65 | 196 | 3.0 | 7.0 | 0.00 | 0.00 | 0.00 | 75 | 1023.2 |
| 20260905142902 | 65 | 176 | 7.0 | 9.0 | 0.00 | 0.00 | 0.00 | 74 | 1023.3 |
| 20260905142252 | 65 | 159 | 6.0 | 12.0 | 0.00 | 0.00 | 0.00 | 75 | 1023.3 |
| 20260905141254 | 66 | 172 | 3.0 | 10.0 | 0.00 | 0.00 | 0.00 | 73 | 1023.4 |
| 20260905140749 | 66 | 162 | 5.0 | 9.0 | 0.00 | 0.00 | 0.00 | 73 | 1023.4 |
| 20260905140250 | 66 | 200 | 2.0 | 6.0 | 0.00 | 0.00 | 0.00 | 72 | 1023.5 |
| 20260905135751 | 66 | 200 | 2.0 | 7.0 | 0.00 | 0.00 | 0.00 | 73 | 1023.5 |
| 20260905135249 | 66 | 283 | 2.0 | 8.0 | 0.00 | 0.00 | 0.00 | 71 | 1023.5 |
| 20260905134750 | 66 | 282 | 1.0 | 6.0 | 0.00 | 0.00 | 0.00 | 72 | 1023.6 |
| 20260905134250 | 66 | 323 | 5.0 | 12.0 | 0.00 | 0.00 | 0.00 | 72 | 1023.7 |
| 20260905133751 | 66 | 332 | 1.0 | 6.0 | 0.00 | 0.00 | 0.00 | 72 | 1023.7 |
| 20260905133250 | 65 | 207 | 5.0 | 8.0 | 0.00 | 0.00 | 0.00 | 73 | 1023.7 |
| 20260905132750 | 65 | 195 | 1.0 | 7.0 | 0.00 | 0.00 | 0.00 | 72 | 1023.7 |
| 20260905132251 | 65 | 171 | 6.0 | 9.0 | 0.00 | 0.00 | 0.00 | 72 | 1023.7 |
| 20260905131749 | 66 | 215 | 3.0 | 9.0 | 0.00 | 0.00 | 0.00 | 73 | 1023.6 |
| 20260905131250 | 66 | 197 | 5.0 | 10.0 | 0.00 | 0.00 | 0.00 | 71 | 1023.6 |
| 20260905130750 | 66 | 161 | 2.0 | 6.0 | 0.00 | 0.00 | 0.00 | 71 | 1023.6 |
| 20260905130250 | 66 | 147 | 3.0 | 10.0 | 0.00 | 0.00 | 0.00 | 71 | 1023.6 |
| 20260905125751 | 67 | 156 | 7.0 | 10.0 | 0.00 | 0.00 | 0.00 | 70 | 1023.6 |
| 20260905124750 | 67 | 174 | 2.0 | 7.0 | 0.00 | 0.00 | 0.00 | 70 | 1023.6 |
| 20260905124251 | 67 | 284 | 2.0 | 8.0 | 0.00 | 0.00 | 0.00 | 69 | 1023.6 |
| 20260905123750 | 67 | 187 | 6.0 | 12.0 | 0.00 | 0.00 | 0.00 | 70 | 1023.5 |
| 20260905123250 | 67 | 266 | 3.0 | 6.0 | 0.00 | 0.00 | 0.00 | 67 | 1023.5 |
| 20260905122750 | 67 | 283 | 2.0 | 9.0 | 0.00 | 0.00 | 0.00 | 69 | 1023.5 |
| 20260905122250 | 67 | 321 | 2.0 | 9.0 | 0.00 | 0.00 | 0.00 | 66 | 1023.5 |
| 20260905121250 | 67 | 173 | 2.0 | 10.0 | 0.00 | 0.00 | 0.00 | 68 | 1023.5 |
| 20260905120750 | 67 | 160 | 5.0 | 9.0 | 0.00 | 0.00 | 0.00 | 69 | 1023.4 |
| 20260905120251 | 67 | 76 | 3.0 | 7.0 | 0.00 | 0.00 | 0.00 | 68 | 1023.4 |
| 20260905115751 | 67 | 183 | 5.0 | 9.0 | 0.00 | 0.00 | 0.00 | 68 | 1023.4 |
| 20260905115251 | 67 | 179 | 3.0 | 7.0 | 0.00 | 0.00 | 0.00 | 66 | 1023.4 |
| 20260905114751 | 67 | 261 | 4.0 | 8.0 | 0.00 | 0.00 | 0.00 | 64 | 1023.5 |
| 20260905114251 | 67 | 330 | 2.0 | 6.0 | 0.00 | 0.00 | 0.00 | 66 | 1023.4 |
| 20260905113751 | 67 | 259 | 1.0 | 5.0 | 0.00 | 0.00 | 0.00 | 64 | 1023.5 |
| 20260905113252 | 66 | 214 | 1.0 | 6.0 | 0.00 | 0.00 | 0.00 | 65 | 1023.4 |
| 20260905112751 | 66 | 347 | 2.0 | 8.0 | 0.00 | 0.00 | 0.00 | 65 | 1023.5 |
| 20260905112251 | 66 | 198 | 2.0 | 6.0 | 0.00 | 0.00 | 0.00 | 65 | 1023.5 |
| 20260905111751 | 66 | 309 | 2.0 | 6.0 | 0.00 | 0.00 | 0.00 | 66 | 1023.4 |
| 20260905111251 | 66 | 304 | 3.0 | 7.0 | 0.00 | 0.00 | 0.00 | 66 | 1023.5 |
| 20260905110752 | 66 | 165 | 6.0 | 10.0 | 0.00 | 0.00 | 0.00 | 66 | 1023.4 |
| 20260905110250 | 66 | 296 | 2.0 | 6.0 | 0.00 | 0.00 | 0.00 | 65 | 1023.4 |
| 20260905105750 | 66 | 303 | 3.0 | 7.0 | 0.00 | 0.00 | 0.00 | 65 | 1023.4 |
| 20260905105250 | 66 | 221 | 1.0 | 6.0 | 0.00 | 0.00 | 0.00 | 67 | 1023.4 |
| 20260905104751 | 65 | 179 | 1.0 | 7.0 | 0.00 | 0.00 | 0.00 | 68 | 1023.4 |
| 20260905104251 | 65 | 307 | 1.0 | 6.0 | 0.00 | 0.00 | 0.00 | 68 | 1023.4 |
| 20260905103751 | 64 | 205 | 1.0 | 6.0 | 0.00 | 0.00 | 0.00 | 69 | 1023.5 |
| 20260905103251 | 63 | 301 | 1.0 | 5.0 | 0.00 | 0.00 | 0.00 | 68 | 1023.5 |
| 20260905102751 | 63 | 285 | 2.0 | 5.0 | 0.00 | 0.00 | 0.00 | 68 | 1023.5 |
| 20260905102251 | 63 | 270 | 2.0 | 3.0 | 0.00 | 0.00 | 0.00 | 69 | 1023.5 |
| 20260905101751 | 63 | 301 | 1.0 | 2.0 | 0.00 | 0.00 | 0.00 | 69 | 1023.4 |
| 20260905101253 | 63 | 283 | 1.0 | 3.0 | 0.00 | 0.00 | 0.00 | 67 | 1023.4 |
| 20260905100251 | 64 | 280 | 1.0 | 6.0 | 0.00 | 0.00 | 0.00 | 70 | 1023.4 |
| 20260905095752 | 63 | 299 | 1.0 | 2.0 | 0.00 | 0.00 | 0.00 | 71 | 1023.3 |
| 20260905094251 | 63 | 294 | 1.0 | 3.0 | 0.00 | 0.00 | 0.00 | 66 | 1023.2 |
| 20260905093251 | 63 | 219 | 1.0 | 3.0 | 0.00 | 0.00 | 0.00 | 68 | 1023.2 |
| 20260905092752 | 62 | 182 | 0.0 | 1.0 | 0.00 | 0.00 | 0.00 | 72 | 1023.2 |
| 20260905092253 | 62 | 285 | 1.0 | 5.0 | 0.00 | 0.00 | 0.00 | 69 | 1023.2 |
| 20260905091751 | 62 | 261 | 0.0 | 2.0 | 0.00 | 0.00 | 0.00 | 74 | 1023.2 |
| 20260905091251 | 61 | 318 | 1.0 | 2.0 | 0.00 | 0.00 | 0.00 | 76 | 1023.2 |
| 20260905090751 | 61 | 281 | 0.0 | 1.0 | 0.00 | 0.00 | 0.00 | 77 | 1023.2 |
| 20260905090251 | 60 | 262 | 0.0 | 2.0 | 0.00 | 0.00 | 0.00 | 77 | 1023.2 |
| 20260905085253 | 60 | 292 | 0.0 | 1.0 | 0.00 | 0.00 | 0.00 | 77 | 1023.1 |
| 20260905083753 | 60 | 304 | 0.0 | 0.0 | 0.00 | 0.00 | 0.00 | 77 | 1023.0 |
| 20260905083252 | 60 | 136 | 0.0 | 0.0 | 0.00 | 0.00 | 0.00 | 77 | 1023.0 |
| 20260905082753 | 60 | 217 | 0.0 | 0.0 | 0.00 | 0.00 | 0.00 | 77 | 1023.1 |
| 20260905082253 | 59 | 291 | 0.0 | 0.0 | 0.00 | 0.00 | 0.00 | 77 | 1023.1 |
| 20260905081751 | 59 | 307 | 0.0 | 0.0 | 0.00 | 0.00 | 0.00 | 77 | 1023.0 |
| 20260905081253 | 59 | 293 | 0.0 | 0.0 | 0.00 | 0.00 | 0.00 | 77 | 1023.0 |
| 20260905080752 | 59 | 286 | 0.0 | 2.0 | 0.00 | 0.00 | 0.00 | 78 | 1022.9 |
| 20260905075752 | 58 | 283 | 0.0 | 1.0 | 0.00 | 0.00 | 0.00 | 79 | 1022.7 |
| 20260905075253 | 58 | 271 | 0.0 | 1.0 | 0.00 | 0.00 | 0.00 | 80 | 1022.7 |
| 20260905074752 | 58 | 281 | 1.0 | 5.0 | 0.00 | 0.00 | 0.00 | 80 | 1022.7 |
| 20260905073754 | 57 | 270 | 0.0 | 2.0 | 0.00 | 0.00 | 0.00 | 82 | 1022.7 |
| 20260905073252 | 57 | 269 | 0.0 | 3.0 | 0.00 | 0.00 | 0.00 | 83 | 1022.6 |
| 20260905072753 | 57 | 292 | 0.0 | 1.0 | 0.00 | 0.00 | 0.00 | 83 | 1022.5 |
| 20260905071752 | 57 | 275 | 0.0 | 1.0 | 0.00 | 0.00 | 0.00 | 84 | 1022.5 |
| 20260905070752 | 56 | 295 | 0.0 | 0.0 | 0.00 | 0.00 | 0.00 | 84 | 1022.5 |
| 20260905070254 | 56 | 295 | 0.0 | 0.0 | 0.00 | 0.00 | 0.00 | 85 | 1022.5 |
| 20260905065253 | 56 | 277 | 0.0 | 1.0 | 0.00 | 0.00 | 0.00 | 85 | 1022.5 |
| 20260905064754 | 56 | 273 | 0.0 | 1.0 | 0.00 | 0.00 | 0.00 | 86 | 1022.4 |
| 20260905064253 | 56 | 302 | 1.0 | 3.0 | 0.00 | 0.00 | 0.00 | 86 | 1022.4 |
| 20260905063752 | 56 | 292 | 0.0 | 2.0 | 0.00 | 0.00 | 0.00 | 86 | 1022.4 |
| 20260905062753 | 56 | 295 | 1.0 | 5.0 | 0.00 | 0.00 | 0.00 | 86 | 1022.3 |
| 20260905062253 | 56 | 309 | 1.0 | 3.0 | 0.00 | 0.00 | 0.00 | 86 | 1022.3 |
| 20260905061752 | 56 | 282 | 2.0 | 5.0 | 0.00 | 0.00 | 0.00 | 86 | 1022.2 |
| 20260905055753 | 55 | 282 | 2.0 | 6.0 | 0.00 | 0.00 | 0.00 | 86 | 1022.1 |
| 20260905055254 | 55 | 284 | 0.0 | 2.0 | 0.00 | 0.00 | 0.00 | 85 | 1022.0 |
| 20260905054253 | 55 | 285 | 0.0 | 1.0 | 0.00 | 0.00 | 0.00 | 86 | 1022.0 |
| 20260905053753 | 55 | 279 | 0.0 | 3.0 | 0.00 | 0.00 | 0.00 | 86 | 1022.0 |
| 20260905053255 | 55 | 273 | 1.0 | 3.0 | 0.00 | 0.00 | 0.00 | 85 | 1021.9 |
| 20260905052253 | 55 | 288 | 1.0 | 6.0 | 0.00 | 0.00 | 0.00 | 85 | 1021.9 |
| 20260905051754 | 55 | 288 | 2.0 | 3.0 | 0.00 | 0.00 | 0.00 | 85 | 1021.9 |
| 20260905051253 | 55 | 281 | 2.0 | 5.0 | 0.00 | 0.00 | 0.00 | 85 | 1021.8 |
| 20260905050254 | 55 | 295 | 0.0 | 2.0 | 0.00 | 0.00 | 0.00 | 85 | 1021.8 |
| 20260905045754 | 55 | 301 | 0.0 | 3.0 | 0.00 | 0.00 | 0.00 | 85 | 1021.7 |
| 20260905045254 | 55 | 294 | 0.0 | 2.0 | 0.00 | 0.00 | 0.00 | 85 | 1021.7 |
| 20260905044753 | 55 | 308 | 0.0 | 1.0 | 0.00 | 0.00 | 0.00 | 84 | 1021.7 |
| 20260905044255 | 55 | 304 | 0.0 | 1.0 | 0.00 | 0.00 | 0.00 | 84 | 1021.6 |
| 20260905043753 | 55 | 308 | 0.0 | 0.0 | 0.00 | 0.00 | 0.00 | 84 | 1021.6 |
| 20260905043255 | 55 | 316 | 0.0 | 3.0 | 0.00 | 0.00 | 0.00 | 84 | 1021.6 |
| 20260905042755 | 55 | 280 | 1.0 | 2.0 | 0.00 | 0.00 | 0.00 | 84 | 1021.6 |
| 20260905042254 | 55 | 261 | 0.0 | 1.0 | 0.00 | 0.00 | 0.00 | 84 | 1021.6 |
| 20260905041754 | 55 | 272 | 0.0 | 2.0 | 0.00 | 0.00 | 0.00 | 84 | 1021.4 |
| 20260905041255 | 55 | 287 | 1.0 | 3.0 | 0.00 | 0.00 | 0.00 | 85 | 1021.4 |
| 20260905040755 | 55 | 287 | 0.0 | 1.0 | 0.00 | 0.00 | 0.00 | 85 | 1021.4 |
| 20260905035755 | 55 | 283 | 0.0 | 2.0 | 0.00 | 0.00 | 0.00 | 84 | 1021.3 |
| 20260905034754 | 55 | 285 | 1.0 | 3.0 | 0.00 | 0.00 | 0.00 | 83 | 1021.4 |
| 20260905034254 | 55 | 278 | 0.0 | 2.0 | 0.00 | 0.00 | 0.00 | 83 | 1021.3 |
| 20260905033756 | 55 | 264 | 0.0 | 1.0 | 0.00 | 0.00 | 0.00 | 82 | 1021.3 |
| 20260905033254 | 55 | 294 | 0.0 | 0.0 | 0.00 | 0.00 | 0.00 | 82 | 1021.2 |
| 20260905032755 | 56 | 294 | 0.0 | 1.0 | 0.00 | 0.00 | 0.00 | 82 | 1021.2 |
| 20260905032255 | 56 | 277 | 0.0 | 1.0 | 0.00 | 0.00 | 0.00 | 82 | 1021.1 |
| 20260905031756 | 56 | 287 | 0.0 | 1.0 | 0.00 | 0.00 | 0.00 | 83 | 1021.2 |
| 20260905031255 | 55 | 284 | 1.0 | 2.0 | 0.00 | 0.00 | 0.00 | 83 | 1021.2 |
| 20260905030754 | 55 | 291 | 1.0 | 2.0 | 0.00 | 0.00 | 0.00 | 84 | 1021.2 |
| 20260905030255 | 55 | 302 | 0.0 | 1.0 | 0.00 | 0.00 | 0.00 | 84 | 1021.1 |
| 20260905025754 | 55 | 273 | 0.0 | 1.0 | 0.00 | 0.00 | 0.00 | 84 | 1021.0 |
| 20260905025255 | 55 | 285 | 0.0 | 1.0 | 0.00 | 0.00 | 0.00 | 84 | 1021.0 |
| 20260905024754 | 55 | 267 | 0.0 | 1.0 | 0.00 | 0.00 | 0.00 | 84 | 1020.9 |
| 20260905024254 | 55 | 286 | 0.0 | 1.0 | 0.00 | 0.00 | 0.00 | 84 | 1020.9 |
| 20260905023754 | 55 | 303 | 0.0 | 0.0 | 0.00 | 0.00 | 0.00 | 84 | 1020.8 |
| 20260905023256 | 55 | 298 | 0.0 | 1.0 | 0.00 | 0.00 | 0.00 | 84 | 1020.9 |
| 20260905022754 | 55 | 301 | 0.0 | 2.0 | 0.00 | 0.00 | 0.00 | 84 | 1020.9 |
| 20260905022256 | 55 | 306 | 1.0 | 2.0 | 0.00 | 0.00 | 0.00 | 85 | 1020.9 |
| 20260905021755 | 55 | 295 | 0.0 | 2.0 | 0.00 | 0.01 | 0.00 | 86 | 1020.9 |
| 20260905021255 | 55 | 257 | 0.0 | 1.0 | 0.00 | 0.01 | 0.00 | 86 | 1020.9 |
| 20260905020755 | 55 | 258 | 0.0 | 1.0 | 0.00 | 0.01 | 0.00 | 86 | 1020.9 |
| 20260905020255 | 55 | 168 | 0.0 | 1.0 | 0.00 | 0.01 | 0.00 | 86 | 1020.8 |
| 20260905015756 | 55 | 235 | 0.0 | 1.0 | 0.00 | 0.01 | 0.00 | 86 | 1020.8 |
| 20260905015255 | 55 | 233 | 0.0 | 1.0 | 0.00 | 0.01 | 0.00 | 86 | 1020.8 |
| 20260905014755 | 55 | 290 | 0.0 | 2.0 | 0.00 | 0.01 | 0.00 | 86 | 1020.8 |
| 20260905014255 | 54 | 293 | 0.0 | 1.0 | 0.00 | 0.01 | 0.00 | 86 | 1020.7 |
| 20260905013756 | 54 | 291 | 0.0 | 2.0 | 0.00 | 0.01 | 0.00 | 86 | 1020.7 |
| 20260905013255 | 54 | 272 | 0.0 | 1.0 | 0.00 | 0.02 | 0.00 | 87 | 1020.7 |
| 20260905012755 | 54 | 35 | 0.0 | 1.0 | 0.00 | 0.02 | 0.00 | 87 | 1020.6 |
| 20260905012256 | 53 | 303 | 0.0 | 2.0 | 0.00 | 0.02 | 0.00 | 87 | 1020.6 |
| 20260905011756 | 53 | 290 | 0.0 | 2.0 | 0.00 | 0.02 | 0.00 | 87 | 1020.5 |
| 20260905011256 | 53 | 299 | 0.0 | 2.0 | 0.00 | 0.02 | 0.00 | 88 | 1020.6 |
| 20260905010256 | 52 | 133 | 0.0 | 1.0 | 0.00 | 0.02 | 0.00 | 87 | 1020.6 |
| 20260905005756 | 52 | 132 | 0.0 | 1.0 | 0.00 | 0.02 | 0.00 | 87 | 1020.6 |
| 20260905005256 | 52 | 132 | 0.0 | 0.0 | 0.00 | 0.02 | 0.00 | 86 | 1020.5 |
| 20260905004756 | 52 | 132 | 0.0 | 0.0 | 0.00 | 0.02 | 0.00 | 85 | 1020.4 |
| 20260905004255 | 53 | 132 | 0.0 | 0.0 | 0.00 | 0.02 | 0.00 | 84 | 1020.4 |
| 20260905003757 | 53 | 132 | 0.0 | 0.0 | 0.00 | 0.02 | 0.00 | 84 | 1020.4 |
| 20260905003256 | 53 | 132 | 0.0 | 0.0 | 0.00 | 0.02 | 0.00 | 83 | 1020.4 |
| 20260905002757 | 54 | 132 | 0.0 | 1.0 | 0.00 | 0.02 | 0.00 | 82 | 1020.4 |
| 20260905002255 | 55 | 140 | 0.0 | 1.0 | 0.00 | 0.02 | 0.00 | 82 | 1020.3 |
| 20260905001756 | 55 | 234 | 0.0 | 2.0 | 0.00 | 0.02 | 0.00 | 81 | 1020.2 |
| 20260905001255 | 56 | 285 | 1.0 | 5.0 | 0.00 | 0.02 | 0.00 | 81 | 1020.2 |
| 20260905000756 | 56 | 292 | 3.0 | 7.0 | 0.00 | 0.02 | 0.00 | 81 | 1020.2 |
| 20260905000257 | 56 | 289 | 2.0 | 6.0 | 0.00 | 0.02 | 0.00 | 80 | 1020.2 |
| 20260904234256 | 55 | 285 | 2.0 | 6.0 | 0.00 | 0.02 | 0.00 | 81 | 1020.2 |
| 20260904233757 | 55 | 283 | 2.0 | 6.0 | 0.00 | 0.02 | 0.00 | 81 | 1020.2 |
| 20260904233256 | 55 | 282 | 1.0 | 3.0 | 0.00 | 0.02 | 0.00 | 81 | 1020.1 |
| 20260904232757 | 55 | 293 | 1.0 | 3.0 | 0.00 | 0.02 | 0.00 | 81 | 1020.0 |
| 20260904232258 | 55 | 293 | 1.0 | 5.0 | 0.00 | 0.02 | 0.00 | 81 | 1020.0 |
| 20260904231257 | 55 | 280 | 2.0 | 3.0 | 0.00 | 0.02 | 0.00 | 81 | 1019.9 |
| 20260904230816 | 55 | 303 | 1.0 | 2.0 | 0.00 | 0.02 | 0.00 | 81 | 1019.9 |
| 20260904230257 | 55 | 276 | 1.0 | 2.0 | 0.00 | 0.02 | 0.00 | 81 | 1019.9 |
| 20260904225758 | 55 | 226 | 0.0 | 1.0 | 0.00 | 0.02 | 0.02 | 81 | 1019.9 |
| 20260904225256 | 56 | 273 | 0.0 | 5.0 | 0.00 | 0.02 | 0.02 | 80 | 1019.8 |
| 20260904224758 | 56 | 304 | 0.0 | 0.0 | 0.00 | 0.02 | 0.02 | 80 | 1019.8 |